Change the Weather History Date:

Tuesday, December 3, 2013

  Actual Average Record
Temperature  
Mean Temperature 58 °F 51 °F  
Max Temperature 66 °F 62 °F 79 °F (1970)
Min Temperature 49 °F 40 °F 18 °F (1960)
Degree Days  
Heating Degree Days 7 14  
Month to date heating degree days 27 42  
Since 1 July heating degree days 423 411  
Cooling Degree Days 0 0  
Month to date cooling degree days 0 0  
Year to date cooling degree days 2042 2102  
Growing Degree Days 7 (Base 50)    
Moisture  
Dew Point 50 °F    
Average Humidity 78    
Maximum Humidity 93    
Minimum Humidity 58    
Precipitation  
Precipitation 0.17 in 0.14 in 0.65 in (1952)
Month to date precipitation 0.17 0.41  
Year to date precipitation 51.33 43.82  
Sea Level Pressure  
Sea Level Pressure 29.94 in    
Wind  
Wind Speed 3 mph (South)    
Max Wind Speed 13 mph    
Max Gust Speed 16 mph    
Visibility 8 miles    
Events Rain    
T = Trace of Precipitation, MM = Missing Value Source: NWS Daily Summary

Daily Weather History Graph

Daily Weather History Graph

Search for Another Location

Airport or City:

Trip Planner

Search our weather history database for the weather conditions in past years. The results will help you decide how hot, cold, wet, or windy it might be!

Date:

Astronomy

Dec. 03, 2013 Rise Set
Actual Time 7:11 AM EST 5:15 PM EST
Civil Twilight 6:44 AM EST 5:42 PM EST
Nautical Twilight 6:13 AM EST 6:13 PM EST
Astronomical Twilight 5:43 AM EST 6:43 PM EST
Moon 7:40 AM EST 6:16 PM EST
Length of Visible Light 10h 58m
Length of Day
10h 04m
New Moon, 1% of the Moon is Illuminated
Dec 3
New Moon
Dec 9
First Quarter
Dec 17
Full
Dec 25
Last Quarter
Jan 1
New

Hourly Weather History & Observations

Time (EST) Temp. Dew Point Humidity Pressure Visibility Wind Dir Wind Speed Gust Speed Precip Events Conditions
12:53 AM 51.1 °F 45.0 °F 80% 29.90 in 10.0 mi Calm Calm - N/A   Overcast
1:53 AM 51.1 °F 46.0 °F 83% 29.91 in 9.0 mi Calm Calm - N/A   Overcast
2:53 AM 51.1 °F 46.9 °F 86% 29.90 in 9.0 mi Calm Calm - N/A   Overcast
3:53 AM 52.0 °F 46.0 °F 80% 29.89 in 10.0 mi Calm Calm - N/A   Overcast
4:53 AM 51.1 °F 46.0 °F 83% 29.89 in 10.0 mi Calm Calm - N/A   Overcast
5:53 AM 51.1 °F 46.0 °F 83% 29.91 in 9.0 mi Calm Calm - N/A   Overcast
6:53 AM 48.9 °F 45.0 °F 86% 29.93 in 8.0 mi Calm Calm - N/A   Mostly Cloudy
7:53 AM 51.1 °F 46.0 °F 83% 29.94 in 7.0 mi Calm Calm - N/A   Overcast
8:53 AM 54.0 °F 45.0 °F 72% 29.95 in 8.0 mi South 3.5 mph - N/A   Overcast
9:53 AM 57.9 °F 48.0 °F 70% 29.97 in 10.0 mi SSW 3.5 mph - N/A   Mostly Cloudy
10:53 AM 62.1 °F 48.9 °F 62% 29.97 in 10.0 mi South 6.9 mph - N/A   Mostly Cloudy
11:53 AM 64.0 °F 50.0 °F 60% 29.96 in 10.0 mi SSW 10.4 mph - N/A   Overcast
12:53 PM 64.0 °F 50.0 °F 60% 29.94 in 10.0 mi South 6.9 mph - N/A   Overcast
1:53 PM 64.0 °F 51.1 °F 63% 29.92 in 10.0 mi South 6.9 mph - 0.00 in   Overcast
2:53 PM 64.9 °F 52.0 °F 63% 29.91 in 10.0 mi South 3.5 mph - N/A   Overcast
3:53 PM 66.0 °F 52.0 °F 60% 29.91 in 10.0 mi SE 5.8 mph - N/A   Scattered Clouds
4:53 PM 64.9 °F 53.1 °F 65% 29.92 in 10.0 mi South 4.6 mph - 0.00 in Rain Light Rain
5:53 PM 61.0 °F 55.0 °F 81% 29.93 in 10.0 mi South 5.8 mph - 0.00 in   Overcast
6:53 PM 60.1 °F 55.0 °F 83% 29.95 in 9.0 mi SSE 3.5 mph - 0.00 in Rain Light Rain
7:53 PM 59.0 °F 55.0 °F 87% 29.97 in 5.0 mi South 3.5 mph - 0.03 in Rain Light Rain
8:42 PM 57.9 °F 55.9 °F 93% 29.98 in 5.0 mi Calm Calm - 0.04 in Rain Light Rain
8:53 PM 57.9 °F 55.9 °F 93% 29.97 in 4.0 mi SE 4.6 mph - 0.05 in Rain Light Rain
9:53 PM 57.9 °F 55.9 °F 93% 29.98 in 5.0 mi Calm Calm - 0.03 in Rain Light Rain
10:53 PM 57.9 °F 55.0 °F 90% 29.97 in 6.0 mi SE 6.9 mph - 0.03 in   Overcast
11:53 PM 57.9 °F 55.0 °F 90% 29.98 in 4.0 mi Calm Calm - 0.01 in Rain Light Rain